Precipitable_Water
0.40 0.40 0.40 0.41 0.41 0.39 0.35 0.29 0.17 0.49 0.53 0.23 0.27 0.20 0.24 0.30 0.26 0.29 0.28 0.28 0.27 0.27 0.33 0.35 0.42 0.42 0.48 0.58 0.57 0.44 0.54 0.47 0.38 0.39 0.53 0.54 0.50 0.47 0.50 0.34 0.31 0.37 0.35 0.26
0.41 0.41 0.40 0.41 0.42 0.42 0.34 0.21 0.23 0.42 0.47 0.18 0.21 0.29 0.28 0.31 0.27 0.26 0.26 0.27 0.30 0.29 0.29 0.34 0.45 0.47 0.56 0.62 0.58 0.54 0.56 0.42 0.33 0.41 0.49 0.54 0.51 0.45 0.46 0.40 0.41 0.39 0.32 0.22
0.38 0.38 0.39 0.40 0.41 0.42 0.36 0.24 0.16 0.31 0.39 0.37 0.28 0.24 0.23 0.22 0.30 0.29 0.33 0.32 0.40 0.29 0.22 0.31 0.37 0.46 0.53 0.56 0.59 0.67 0.65 0.49 0.38 0.30 0.37 0.49 0.43 0.44 0.41 0.39 0.36 0.39 0.35 0.28
0.39 0.38 0.39 0.42 0.40 0.42 0.35 0.26 0.21 0.28 0.17 0.23 0.25 0.26 0.24 0.23 0.25 0.32 0.35 0.31 0.33 0.32 0.27 0.31 0.38 0.48 0.48 0.53 0.60 0.63 0.60 0.44 0.44 0.45 0.47 0.48 0.44 0.39 0.40 0.38 0.41 0.34 0.33 0.31
0.41 0.39 0.41 0.43 0.42 0.41 0.30 0.21 0.22 0.26 0.21 0.23 0.20 0.20 0.21 0.24 0.26 0.29 0.27 0.28 0.33 0.35 0.29 0.31 0.36 0.46 0.48 0.46 0.60 0.58 0.62 0.46 0.47 0.43 0.47 0.44 0.35 0.35 0.36 0.40 0.42 0.40 0.30 0.25
0.41 0.40 0.40 0.43 0.44 0.41 0.29 0.35 0.38 0.29 0.22 0.21 0.19 0.18 0.23 0.23 0.29 0.31 0.34 0.34 0.32 0.28 0.33 0.41 0.44 0.54 0.56 0.59 0.57 0.55 0.54 0.48 0.42 0.34 0.41 0.38 0.28 0.31 0.34 0.38 0.40 0.35 0.24 0.24
0.41 0.41 0.37 0.42 0.44 0.44 0.37 0.37 0.35 0.26 0.18 0.21 0.20 0.22 0.25 0.26 0.29 0.28 0.31 0.34 0.30 0.35 0.43 0.47 0.54 0.53 0.51 0.59 0.61 0.65 0.54 0.49 0.43 0.33 0.37 0.23 0.37 0.36 0.36 0.34 0.36 0.36 0.30 0.28
0.39 0.39 0.36 0.39 0.44 0.45 0.39 0.40 0.33 0.28 0.19 0.22 0.21 0.22 0.23 0.26 0.28 0.28 0.30 0.34 0.37 0.40 0.43 0.43 0.39 0.41 0.46 0.51 0.60 0.56 0.61 0.48 0.37 0.30 0.30 0.33 0.34 0.33 0.30 0.28 0.26 0.30 0.27 0.29
0.39 0.40 0.38 0.36 0.42 0.43 0.40 0.38 0.42 0.33 0.23 0.18 0.26 0.23 0.26 0.21 0.23 0.27 0.30 0.36 0.40 0.44 0.45 0.44 0.33 0.31 0.44 0.38 0.42 0.51 0.51 0.47 0.37 0.35 0.28 0.22 0.32 0.33 0.35 0.30 0.16 0.25 0.27 0.29
0.37 0.38 0.37 0.34 0.39 0.42 0.40 0.36 0.44 0.36 0.24 0.25 0.27 0.23 0.25 0.31 0.30 0.26 0.28 0.32 0.32 0.46 0.43 0.37 0.37 0.38 0.49 0.35 0.30 0.33 0.36 0.35 0.34 0.33 0.28 0.30 0.38 0.34 0.35 0.16 0.17 0.27 0.26 0.28
0.37 0.35 0.36 0.33 0.35 0.41 0.40 0.36 0.44 0.35 0.27 0.25 0.28 0.29 0.26 0.29 0.29 0.25 0.31 0.28 0.34 0.39 0.37 0.37 0.41 0.42 0.48 0.38 0.36 0.35 0.34 0.32 0.33 0.34 0.29 0.25 0.43 0.34 0.24 0.27 0.30 0.28 0.25 0.26
0.38 0.36 0.35 0.32 0.34 0.38 0.43 0.33 0.43 0.46 0.34 0.28 0.36 0.38 0.40 0.39 0.39 0.35 0.37 0.33 0.36 0.41 0.36 0.38 0.41 0.39 0.49 0.44 0.31 0.41 0.33 0.39 0.37 0.40 0.38 0.47 0.41 0.38 0.37 0.35 0.31 0.23 0.23 0.25
0.40 0.36 0.34 0.32 0.36 0.39 0.43 0.38 0.42 0.41 0.32 0.26 0.27 0.23 0.30 0.39 0.39 0.42 0.29 0.36 0.42 0.46 0.53 0.45 0.42 0.38 0.51 0.41 0.38 0.36 0.41 0.47 0.39 0.44 0.45 0.44 0.44 0.39 0.27 0.27 0.24 0.24 0.23 0.26
0.41 0.36 0.33 0.33 0.36 0.41 0.45 0.41 0.44 0.44 0.37 0.25 0.24 0.35 0.33 0.42 0.44 0.44 0.44 0.38 0.47 0.52 0.52 0.45 0.41 0.41 0.58 0.51 0.51 0.44 0.42 0.43 0.41 0.41 0.44 0.48 0.45 0.35 0.25 0.21 0.22 0.27 0.28 0.27
0.43 0.35 0.32 0.34 0.39 0.45 0.47 0.47 0.50 0.52 0.40 0.27 0.28 0.36 0.34 0.36 0.37 0.39 0.42 0.42 0.47 0.48 0.44 0.42 0.40 0.51 0.56 0.60 0.56 0.47 0.47 0.41 0.37 0.35 0.44 0.43 0.41 0.38 0.31 0.23 0.22 0.29 0.27 0.28
0.44 0.35 0.32 0.37 0.42 0.47 0.46 0.35 0.48 0.53 0.52 0.35 0.24 0.35 0.33 0.33 0.39 0.42 0.40 0.40 0.48 0.51 0.46 0.44 0.48 0.56 0.55 0.49 0.46 0.52 0.53 0.51 0.47 0.40 0.47 0.45 0.46 0.40 0.34 0.30 0.28 0.35 0.33 0.31
0.45 0.35 0.33 0.39 0.45 0.48 0.40 0.36 0.54 0.63 0.59 0.37 0.28 0.26 0.33 0.42 0.38 0.39 0.43 0.47 0.49 0.50 0.48 0.45 0.45 0.48 0.57 0.53 0.46 0.53 0.55 0.53 0.49 0.50 0.50 0.45 0.48 0.40 0.38 0.35 0.34 0.36 0.38 0.37
0.42 0.34 0.37 0.43 0.50 0.53 0.45 0.53 0.55 0.61 0.49 0.44 0.27 0.23 0.27 0.41 0.34 0.35 0.50 0.44 0.49 0.48 0.46 0.47 0.45 0.52 0.55 0.43 0.50 0.57 0.59 0.57 0.53 0.53 0.53 0.52 0.52 0.44 0.40 0.41 0.38 0.35 0.34 0.37
0.38 0.36 0.42 0.46 0.47 0.41 0.46 0.60 0.64 0.63 0.49 0.33 0.32 0.23 0.19 0.37 0.39 0.45 0.47 0.48 0.35 0.48 0.41 0.42 0.44 0.43 0.41 0.45 0.48 0.56 0.58 0.56 0.54 0.54 0.54 0.59 0.54 0.43 0.42 0.40 0.39 0.36 0.35 0.37
0.37 0.39 0.34 0.34 0.46 0.62 0.64 0.56 0.46 0.45 0.44 0.43 0.31 0.33 0.23 0.34 0.42 0.41 0.42 0.45 0.37 0.32 0.39 0.48 0.40 0.37 0.45 0.51 0.53 0.57 0.60 0.60 0.59 0.51 0.49 0.52 0.52 0.46 0.45 0.43 0.42 0.39 0.38 0.38
0.35 0.30 0.33 0.51 0.65 0.54 0.47 0.37 0.35 0.37 0.31 0.34 0.32 0.30 0.25 0.34 0.27 0.28 0.39 0.40 0.43 0.31 0.38 0.38 0.37 0.35 0.42 0.46 0.46 0.52 0.57 0.60 0.58 0.58 0.59 0.60 0.56 0.50 0.49 0.48 0.48 0.43 0.40 0.38
0.35 0.41 0.53 0.55 0.47 0.40 0.33 0.30 0.32 0.31 0.26 0.33 0.28 0.27 0.28 0.31 0.42 0.38 0.44 0.40 0.42 0.36 0.53 0.41 0.33 0.39 0.45 0.45 0.48 0.50 0.53 0.55 0.56 0.60 0.59 0.61 0.61 0.58 0.55 0.52 0.50 0.49 0.44 0.41
0.39 0.40 0.38 0.38 0.37 0.27 0.23 0.20 0.23 0.23 0.29 0.31 0.28 0.25 0.29 0.35 0.39 0.37 0.35 0.34 0.36 0.50 0.42 0.37 0.39 0.44 0.46 0.47 0.52 0.53 0.54 0.53 0.55 0.58 0.59 0.61 0.62 0.60 0.57 0.54 0.54 0.53 0.49 0.45
0.29 0.31 0.26 0.28 0.25 0.24 0.24 0.22 0.22 0.26 0.28 0.28 0.29 0.29 0.29 0.35 0.32 0.33 0.29 0.37 0.41 0.35 0.30 0.31 0.42 0.40 0.43 0.48 0.55 0.54 0.54 0.56 0.54 0.53 0.56 0.60 0.62 0.59 0.59 0.58 0.57 0.54 0.48 0.48
0.28 0.33 0.25 0.27 0.28 0.28 0.28 0.30 0.28 0.28 0.30 0.30 0.29 0.31 0.33 0.31 0.30 0.34 0.31 0.30 0.30 0.33 0.31 0.37 0.45 0.51 0.53 0.50 0.50 0.51 0.51 0.53 0.54 0.60 0.63 0.62 0.61 0.59 0.59 0.59 0.58 0.54 0.50 0.45
0.32 0.33 0.30 0.32 0.29 0.26 0.28 0.27 0.27 0.31 0.30 0.37 0.35 0.31 0.28 0.29 0.29 0.28 0.25 0.25 0.28 0.33 0.44 0.54 0.55 0.52 0.55 0.55 0.53 0.52 0.52 0.54 0.55 0.62 0.63 0.63 0.61 0.57 0.58 0.60 0.57 0.55 0.51 0.46
0.30 0.26 0.33 0.38 0.34 0.25 0.27 0.29 0.30 0.38 0.31 0.28 0.31 0.27 0.26 0.33 0.28 0.26 0.29 0.24 0.29 0.39 0.45 0.54 0.58 0.53 0.56 0.57 0.52 0.52 0.49 0.48 0.50 0.54 0.60 0.62 0.63 0.60 0.57 0.53 0.55 0.55 0.53 0.51
Wind_Speed
17 18 19 20 20 21 18 18 16 17 18 17 16 16 17 20 23 22 20 22 21 19 17 15 12 11 10 9 13 14 14 13 13 13 16 14 13 13 10 7 9 7 8 12
18 19 19 20 20 20 19 17 17 17 16 16 18 18 19 18 20 20 21 19 19 21 18 12 11 12 11 9 12 10 14 13 11 12 12 14 12 14 12 10 9 11 8 9
19 20 20 20 20 19 18 17 17 17 17 17 17 19 18 19 21 20 20 17 15 17 15 18 15 15 12 14 14 15 10 17 15 15 10 9 12 12 14 11 9 8 11 9
20 20 20 20 20 19 18 17 18 18 18 18 20 19 19 20 20 18 18 15 16 15 12 13 14 12 13 13 14 15 13 13 14 13 13 12 11 11 14 15 11 9 10 12
20 21 20 20 20 20 18 18 18 19 20 20 20 19 19 20 22 20 18 18 19 15 13 17 18 15 11 11 11 16 15 16 12 17 14 13 11 12 14 16 12 13 9 10
21 21 21 20 20 19 19 19 20 19 20 20 19 19 21 23 21 18 19 20 17 17 13 16 20 21 20 18 15 12 13 14 13 13 10 10 11 13 14 14 14 14 11 9
21 21 21 20 20 19 20 20 21 20 21 20 21 23 24 22 21 21 20 18 14 16 19 18 18 21 21 18 20 17 13 14 12 10 7 8 12 9 9 14 13 15 11 9
21 21 21 21 21 21 21 22 22 22 22 22 24 24 23 23 23 19 19 16 15 17 14 11 10 10 11 13 18 21 22 15 11 9 9 8 9 7 7 7 9 14 15 11
21 20 21 21 22 22 22 23 23 23 24 22 22 22 23 22 20 18 17 16 15 11 11 10 9 8 8 11 9 16 19 17 14 9 10 7 7 6 5 4 7 5 12 12
20 21 21 22 22 23 23 23 23 24 25 26 25 22 21 19 17 17 16 13 10 7 10 9 8 8 8 11 12 12 13 13 13 11 10 9 9 7 4 4 5 3 8 10
20 21 22 23 23 23 23 23 24 24 25 27 26 25 23 22 20 17 13 10 10 9 6 7 5 5 9 8 11 13 12 12 14 10 8 9 6 4 6 6 4 3 5 9
20 22 23 24 23 23 23 23 24 24 25 23 23 24 24 24 22 19 15 13 13 13 9 7 7 6 7 7 9 11 11 14 12 12 10 8 5 6 5 6 5 3 4 7
21 22 24 24 23 23 23 23 24 25 26 27 26 25 27 25 25 24 20 16 16 15 13 10 9 8 7 9 10 12 13 12 12 11 9 10 7 5 3 4 3 3 6 11
22 23 24 23 23 23 23 24 24 24 24 23 22 21 20 18 19 21 23 23 20 18 16 14 12 10 5 7 10 12 14 14 12 13 10 5 6 7 6 4 2 4 8 12
23 23 23 23 22 23 24 26 25 24 20 17 17 17 19 18 19 21 23 22 22 19 16 16 14 13 10 11 13 13 14 13 14 13 11 9 7 10 8 6 4 7 10 10
23 23 23 23 22 23 22 19 19 20 18 14 12 10 11 14 16 18 20 24 23 21 17 16 15 16 10 8 12 12 13 13 14 14 12 11 6 9 9 8 7 8 9 10
24 24 23 22 23 23 19 13 9 9 12 11 10 9 8 8 12 15 16 22 22 21 18 17 17 15 14 12 11 14 9 9 10 12 12 10 8 9 9 9 8 8 9 9
23 23 23 24 24 23 20 21 21 16 12 10 9 10 8 9 9 12 15 19 21 21 18 16 15 15 17 16 18 17 13 9 11 14 10 11 10 9 9 9 9 8 8 8
23 23 23 24 20 17 16 16 18 19 16 10 11 11 10 9 10 11 14 17 18 20 19 17 16 16 18 15 17 20 18 15 12 12 12 11 12 11 10 9 10 9 8 8
21 21 18 16 14 14 12 11 11 13 16 14 12 13 14 11 9 10 11 15 17 18 18 16 18 18 19 18 18 22 20 19 17 14 14 13 14 13 11 10 10 10 9 9
18 17 16 15 12 12 12 11 12 13 12 13 14 16 15 14 14 14 13 13 14 14 16 18 15 13 14 17 21 23 25 25 22 20 18 17 17 16 14 12 11 11 11 11
17 16 16 14 15 13 13 13 12 12 12 11 10 13 17 17 15 13 12 14 14 11 15 15 12 10 12 12 16 19 22 24 25 24 21 20 21 19 17 16 14 13 13 13
18 16 15 15 16 16 15 14 11 13 12 11 11 12 13 17 17 14 13 13 14 13 14 14 12 10 9 9 11 14 16 20 22 23 23 23 22 21 20 18 16 15 15 15
17 18 18 18 16 17 16 15 12 12 14 15 13 12 13 15 17 15 14 15 12 14 15 15 12 10 8 7 9 11 13 16 18 22 25 26 26 23 21 18 18 16 16 16
20 20 20 21 20 17 14 13 12 13 12 15 14 13 13 14 15 16 16 16 15 14 13 11 10 9 8 8 9 10 10 12 15 17 19 21 26 24 23 21 19 18 16 17
23 24 20 20 21 18 16 15 13 12 15 14 16 14 13 14 16 17 19 19 18 16 11 10 10 9 7 7 8 9 9 9 11 14 16 19 21 23 25 25 23 22 20 18
25 26 26 20 18 21 18 17 15 13 17 19 15 16 16 12 14 17 19 19 19 17 14 10 8 9 8 7 6 7 7 7 9 11 13 17 20 21 23 24 24 24 24 23
Wind_Direction
296 301 304 307 310 312 309 306 303 303 308 311 311 309 305 308 309 310 305 308 299 289 301 282 256 245 252 274 251 235 230 219 224 232 234 238 237 238 233 234 257 273 261 269
296 299 303 306 308 312 308 304 299 304 304 306 308 308 308 306 312 312 310 304 297 290 283 271 244 241 256 260 233 226 225 223 222 229 239 240 237 234 234 244 267 272 234 257
294 297 300 303 304 308 305 302 300 302 302 302 307 308 305 309 309 307 312 305 314 309 274 251 246 251 253 269 254 231 219 225 216 223 234 230 235 227 230 238 258 254 241 260
293 296 298 300 301 303 300 300 296 298 299 300 302 303 301 308 314 306 307 299 311 306 274 255 241 251 270 269 246 228 223 223 224 236 248 231 243 234 225 232 243 245 260 237
290 294 295 297 299 298 297 295 298 298 295 295 299 298 298 309 309 302 300 297 297 290 273 263 256 263 253 255 256 232 223 233 247 252 235 230 246 240 233 233 246 258 246 251
287 293 293 294 296 296 295 295 295 294 294 295 295 291 300 302 306 295 296 297 288 281 269 272 255 251 254 260 246 231 217 205 215 229 236 240 264 248 235 237 238 231 229 238
286 290 291 291 292 294 292 293 294 293 291 292 292 292 294 297 297 292 292 291 279 273 280 272 248 247 246 241 228 219 217 214 220 219 225 238 242 243 238 232 233 227 232 233
286 287 291 289 289 291 291 291 291 290 289 289 290 289 290 291 292 286 286 285 277 281 264 245 246 235 224 228 232 212 206 209 214 206 217 249 256 249 223 228 250 226 229 225
283 285 290 291 288 289 290 289 287 287 289 286 289 289 287 287 286 283 280 286 283 262 233 227 226 219 227 201 201 199 204 209 206 202 203 227 236 235 244 236 252 252 220 206
280 285 289 292 288 288 290 288 286 286 286 283 282 282 284 282 282 278 280 283 268 241 220 222 219 210 211 195 189 186 186 194 191 198 217 250 241 246 242 206 229 247 197 196
279 285 289 293 289 287 288 287 286 283 285 282 277 276 275 275 273 266 266 260 226 217 211 212 214 210 190 196 192 189 187 187 199 207 218 233 224 228 215 221 236 219 203 199
280 286 290 293 289 286 287 286 285 284 281 282 282 276 269 265 260 254 239 233 231 213 212 219 213 219 217 209 206 194 193 193 195 199 206 208 222 220 223 218 216 227 211 181
283 288 292 292 287 284 283 284 284 286 286 286 276 271 267 260 249 239 233 228 219 216 219 217 212 223 233 209 210 196 196 193 198 187 202 220 223 223 204 195 201 224 177 163
284 288 291 289 285 284 283 283 283 283 287 287 280 270 262 251 238 230 227 230 222 219 219 217 218 223 200 200 210 204 198 194 199 213 225 218 223 212 194 178 150 142 150 160
284 288 289 287 284 284 286 284 280 274 274 283 281 281 265 238 232 229 222 219 212 212 215 215 221 222 233 233 219 209 205 210 208 212 218 218 232 207 198 184 166 156 151 158
283 287 287 285 283 286 290 291 281 264 259 275 271 259 240 235 225 224 220 213 208 209 211 214 214 222 231 219 209 211 220 221 216 217 214 210 213 187 188 182 168 161 159 161
281 285 286 283 282 281 273 270 277 285 244 259 262 246 224 228 212 214 213 202 206 209 212 218 221 229 218 210 207 202 208 210 204 202 184 192 195 190 186 180 172 165 168 170
280 283 284 282 282 278 265 255 254 263 240 244 246 234 238 213 214 207 203 201 203 207 211 213 218 220 213 218 213 220 215 214 199 191 193 195 191 181 181 179 176 173 172 176
279 282 284 284 274 263 258 257 250 233 225 240 239 226 225 212 204 197 197 199 203 205 209 214 212 216 214 218 220 210 211 206 207 210 209 197 193 190 187 184 187 186 184 184
276 280 279 276 262 250 236 233 227 217 226 236 239 225 218 205 193 192 198 199 203 206 211 211 216 226 229 228 224 219 217 213 216 215 213 209 206 204 203 204 203 200 198 194
269 270 268 262 241 227 229 232 228 223 229 231 236 223 214 210 209 211 204 201 199 206 207 205 216 227 227 228 228 223 223 222 222 222 224 219 214 212 214 213 212 212 208 205
260 266 260 240 227 233 229 227 227 231 228 223 222 218 209 207 203 200 205 208 202 207 193 203 214 225 225 230 224 224 224 225 222 221 225 224 219 218 219 222 224 221 214 209
256 248 241 229 227 226 222 219 238 236 228 222 219 212 202 202 201 204 208 204 207 213 204 207 212 221 231 231 218 218 220 220 223 223 223 223 221 220 220 222 223 220 216 212
242 237 235 227 224 228 226 234 244 241 223 215 211 203 201 201 200 205 205 207 214 208 208 210 207 227 237 239 226 220 226 227 227 226 228 224 220 220 220 220 219 217 216 213
238 235 235 229 227 227 229 232 238 229 216 206 203 203 203 205 205 207 208 210 208 203 203 207 220 230 237 238 233 233 238 236 229 226 220 218 215 216 218 219 217 216 216 211
236 233 233 229 219 225 227 227 231 221 206 196 197 199 204 208 206 206 210 210 210 208 210 217 224 225 229 234 234 235 239 237 229 223 218 216 214 218 222 223 222 219 217 213
236 230 223 224 226 225 227 224 226 212 203 206 206 203 207 204 208 213 212 215 212 208 221 229 230 228 234 236 231 229 234 233 230 229 227 223 223 223 221 220 222 221 220 219